www.pogodaiklimat.ru

Погода и климат >> Архив погоды >> Антарктида >> Limbert Aws


ПОГОДА в Limbert Aws

  • Прогноз погоды в Limbert Aws
  • Монитор погоды в Limbert Aws
  • Климат города

АРХИВ ПОГОДЫ в Limbert Aws

Время (UTC), дата Ветер
(напр.,м/с)
 
Видим.   Явления Облачность Т
(С)
Тd
(С)
f
(%)
Тe
(С)
Тes
(С)
Комфортность P
(гПа)
Po
(гПа)
Тmin
(С)
Tmax
(С)
R
(мм)
R24
(мм)
S
(см)
00 14.11 Ю 5 н/о н/о -9.3 -10.5 91 -17 -17 981.5 974.4
09 14.11 Ю 4 н/о н/о -8.7 -9.8 92 -15 -15 982.8 975.7
12 14.11 Ю 3 н/о н/о -7.5 -8.7 91 -13 -13 982.9 975.9
18 14.11 ЮВ 4 н/о н/о -5.7 -8.2 82 -12 -12 982.6 975.6
21 14.11 ЮВ 3 н/о н/о -5.7 -7.7 86 -11 -11 982.6 975.6
00 15.11 ЮВ 3 н/о н/о -8.4 -9.8 90 -14 -14 982.6 975.6
03 15.11 ЮВ 3 н/о н/о -9.7 -10.9 91 -16 -16 982.4 975.3
06 15.11 В 4 н/о н/о -10.0 -11.2 91 -17 -17 982.1 975.0
09 15.11 В 5 н/о н/о -10.7 -12.2 89 -19 -19 982.4 975.3
12 15.11 В 6 н/о н/о -9.2 -11.0 87 -18 -18 982.8 975.7
15 15.11 В 7 н/о н/о -9.3 -11.5 84 -18 -18 983.0 975.9
18 15.11 В 7 н/о н/о -9.5 -11.7 84 -18 -18 983.1 976.0
21 15.11 В 7 н/о н/о -10.4 -12.4 85 -20 -20 983.4 976.3
00 16.11 В 6 н/о н/о -11.3 -13.1 87 -20 -20 983.6 976.5
03 16.11 В 4 н/о н/о -10.6 -12.1 89 -18 -18 983.6 976.5
06 16.11 В 5 н/о н/о -10.9 -12.4 89 -19 -19 983.7 976.6
09 16.11 В 6 н/о н/о -11.4 -13.1 87 -20 -20 984.2 977.1
12 16.11 В 5 н/о н/о -10.7 -13.1 82 -19 -19 984.9 977.8
15 16.11 ЮВ 5 н/о н/о -10.0 -13.0 79 -18 -18 985.3 978.2
18 16.11 Ю 5 н/о н/о -11.2 -14.3 78 -19 -19 985.3 978.2
21 16.11 Ю 8 н/о н/о -11.4 -13.4 85 -21 -21 985.3 978.2
00 17.11 Ю 8 н/о н/о -12.4 -14.1 87 -22 -22 985.5 978.3
03 17.11 Ю 7 н/о н/о -12.9 -14.4 88 -23 -23 985.1 977.9
06 17.11 Ю 7 н/о н/о -14.2 -15.9 87 -24 -24 985.1 977.9
09 17.11 Ю 8 н/о н/о -13.4 -15.2 86 -24 -24 985.2 978.0
12 17.11 Ю 9 н/о н/о -13.2 -15.0 86 -24 -24 984.9 977.7
15 17.11 ЮЗ 10 н/о н/о -14.0 -16.1 84 -26 -26 984.5 977.3
18 17.11 ЮЗ 10 н/о н/о -14.2 -16.3 84 -26 -26 983.6 976.4
21 17.11 ЮЗ 11 н/о н/о -14.5 -16.5 85 -27 -27 983.2 976.0
03 18.11 ЮЗ 11 н/о н/о -16.8 -18.7 85 -30 -30 980.8 973.5
06 18.11 ЮЗ 10 н/о н/о -15.9 -17.7 86 -28 -28 979.5 972.3
09 18.11 ЮЗ 9 н/о н/о -14.2 -16.0 86 -25 -25 978.6 971.4
12 18.11 ЮЗ 8 н/о н/о -12.9 -14.9 85 -23 -23 976.8 969.7
15 18.11 ЮЗ 8 н/о н/о -11.8 -13.8 85 -22 -22 975.1 968.0
18 18.11 ЮЗ 7 н/о н/о -11.2 -13.3 84 -20 -20 973.5 966.4
21 18.11 ЮЗ 7 н/о н/о -11.9 -14.0 84 -21 -21 971.8 964.7
00 19.11 ЮЗ 7 н/о н/о -16.3 -18.9 80 -27 -27 970.7 963.5
03 19.11 ЮЗ 5 н/о н/о -20.8 -23.2 81 -31 -31 опасность
обморожения
969.3 962.0
06 19.11 ЮЗ 5 н/о н/о -22.7 -25.1 81 -33 -33 опасность
обморожения
968.2 960.9
09 19.11 ЮЗ 4 н/о н/о -21.7 -24.1 81 -31 -31 опасность
обморожения
968.0 960.7
12 19.11 ЮЗ 5 н/о н/о -18.7 -21.0 82 -28 -28 967.6 960.4
15 19.11 ЮЗ 5 н/о н/о -15.5 -17.9 82 -24 -24 967.8 960.7
18 19.11 ЮЗ 4 н/о н/о -13.9 -16.7 79 -22 -22 967.6 960.5
21 19.11 ЮЗ 4 н/о н/о -14.6 -17.4 79 -22 -22 967.9 960.8
00 20.11 ЮЗ 2 н/о н/о -16.2 -19.2 78 -20 -20 968.4 961.2
03 20.11 ЮЗ 2 н/о н/о -21.1 -23.4 82 -27 -27 968.3 961.0
06 20.11 В 1 н/о н/о -20.5 -22.5 84 -24 -24 968.8 961.5
09 20.11 штиль 0 н/о н/о -16.3 -18.2 85 -16 -16 969.5 962.3
12 20.11 ЮВ 2 н/о н/о -13.7 -17.9 71 -18 -18 969.8 962.7
15 20.11 Ю 3 н/о н/о -12.1 -15.0 79 -18 -18 969.9 962.8
18 20.11 Ю 2 н/о н/о -7.9 -10.3 83 -12 -12 970.0 963.1
21 20.11 СВ 4 н/о н/о -3.9 -5.3 90 -10 -10 970.4 963.6

 

Местоположение метеостанции Limbert Aws (Антарктида): широта -75.87 долгота -59.15 высота над уровнем моря 59 м.

В архиве по умолчанию представлена погода в Limbert Aws за последнюю неделю. Архивные данные за месяц целиком и за предыдущие месяцы, начиная с января 2011 года, Вы можете получить, выбрав интересующий диапазон дат из раскрывающегося списка и нажав кнопку "Ввод!".


*Определитесь, кто Вы:
робот инопланетянин человек

Внимание! Время в таблицах - всемирное. Для получения местного времени необходимо прибавить поправку, которая в Limbert Aws равна 0 ч.

Смотрите также архив погоды в соседних городах и на ближайших метеорологических станциях:

Погода в Sky Blue (Антарктида) (367 км)
Погода в Butler Island (Антарктида) (409 км)
Погода в Fossil Bluff (Антарктида) (580 км)
Погода в Base Belgrano Ii (Антарктида) (653 км)
Погода в Halley (Антарктида) (883 км)
Погода в San Martin Base (Антарктида) (904 км)
Погода в Rothera (Антарктида) (973 км)
Погода в Larsen Ice Shelf (Антарктида) (989 км)
Погода в Vernadsky (Антарктида) (1195 км)
Погода в Palmer Station (Антарктида) (1248 км)

Пояснения к столбцам:

Ветер - указаны скорость ветра в м/с - средняя за 10 мин, порывы в срок и между сроками (в фигурных скобках) и направление, откуда дует ветер: С - северный, СВ - северо-восточный, В - восточный, ЮВ - юго-восточный, Ю - южный, ЮЗ - юго-западный, З - западный, СЗ - северо-западный.
Видимость - горизонтальная дальность видимости в метрах или километрах. При видимости от 1 до 10 км при отсутствии осадков обычно наблюдается дымка, при ухудшении видимости до 1 км и менее - туман. В сухую погоду видимость может ухудшаться дымом, пылью или мглою.
Явления - указаны атмосферные явления, наблюдавшиеся в срок или в последний час перед сроком; фигурными скобками обозначены явления, наблюдавшиеся между сроками (за 1-3 часа до срока); квадратными скобками обозначены град или гололедные отложения с указанием их диаметра в мм.
Облачность - указаны через наклонную черту общая и нижняя облачность в баллах и высота нижней границы облаков в метрах; квадратными скобками обозначены формы облаков: Ci - перистые, Cs - перисто-слоистые, Cc - перисто-кучевые, Ac - высококучевые, As - высокослоистые, Sc - слоисто-кучевые, Ns - слоисто-дождевые, Cu - кучевые, Cb - кучево-дождевые. Подробнее классификацию облаков см. в Атласе облаков (PDF).
T - Температура воздуха - температура, измеренная на высоте 2 м над землей.
Td - Температура точки росы - температура, при понижении до которой содержащийся в воздухе водяной пар достигнет насыщения.
f - Относительная влажность воздуха - влажноcть воздуха, измеренная на высоте 2 м над землей.
Te - Эффективная температура - температура, которую ощущает одетый по сезону человек в тени. Характеристика душности погоды. При расчете учитывается влияние влажности воздуха и скорости ветра на теплоощущения человека.
Tes - Эффективная температура на солнце - температура, которую ощущает человек, с поправкой на солнечный нагрев. Характеристика знойности погоды. Зависит от высоты солнца над горизонтом, облачности и скорости ветра. Ночью, в пасмурную погоду, а также при ветре 12 м/с и более поправка равна нулю.
P - Атмосферное давление - приведенное к уровню моря атмосферное давление.
Po - Атмосферное давление - измеренное на уровне метеостанции атмосферное давление.
Tmin - Минимальная температура - минимум температуры воздуха на высоте 2 м над землей.
Tmax - Максимальная температура - максимум температуры воздуха на высоте 2 м над землей.
R - Количество осадков - Количество выпавших осадков за период времени, мм. При наведении курсора мыши на число - период времени, за который выпало указанное количество осадков.
R24 - Количество осадков - Количество выпавших осадков за 24 часа, мм.
S - Снежный покров - Высота снежного покрова, см. При наведении курсора мыши на число - состояние снежного покрова и степень покрытия местности в баллах.